TimeHST,TemperatureF,Dew PointF,Humidity,Sea Level PressureIn,VisibilityMPH,Wind Direction,Wind SpeedMPH,Gust SpeedMPH,PrecipitationIn,Events,Conditions,WindDirDegrees,DateUTC
12:54 AM,75.0,69.1,82,30.02,10.0,North,8.1,-,N/A,,Clear,10,2013-07-04 10:54:00
1:54 AM,73.9,70.0,87,30.01,10.0,North,6.9,-,N/A,,Clear,10,2013-07-04 11:54:00
2:54 AM,73.9,70.0,87,29.99,10.0,North,5.8,-,N/A,,Clear,360,2013-07-04 12:54:00
3:54 AM,73.0,70.0,90,29.99,10.0,NE,4.6,-,N/A,,Clear,50,2013-07-04 13:54:00
4:54 AM,71.1,70.0,96,29.99,10.0,Calm,Calm,-,N/A,,Mostly Cloudy,0,2013-07-04 14:54:00
5:54 AM,75.0,69.1,82,30.01,10.0,North,4.6,-,N/A,,Overcast,360,2013-07-04 15:54:00
6:54 AM,78.1,69.1,74,30.02,10.0,NE,9.2,-,N/A,,Scattered Clouds,40,2013-07-04 16:54:00
7:54 AM,80.1,71.1,74,30.03,10.0,NE,10.4,-,N/A,,Partly Cloudy,40,2013-07-04 17:54:00
8:54 AM,82.0,71.1,69,30.04,10.0,NNE,10.4,-,N/A,,Scattered Clouds,20,2013-07-04 18:54:00
9:54 AM,84.0,70.0,63,30.04,10.0,NE,17.3,-,N/A,,Scattered Clouds,40,2013-07-04 19:54:00
10:54 AM,84.0,70.0,63,30.04,10.0,NNE,18.4,-,N/A,,Scattered Clouds,30,2013-07-04 20:54:00
11:54 AM,86.0,71.1,61,30.03,10.0,NE,19.6,-,N/A,,Scattered Clouds,40,2013-07-04 21:54:00
12:54 PM,86.0,70.0,59,30.02,10.0,NE,18.4,-,N/A,,Scattered Clouds,40,2013-07-04 22:54:00
1:54 PM,86.0,69.1,57,30.01,10.0,NNE,18.4,-,N/A,,Scattered Clouds,30,2013-07-04 23:54:00
2:54 PM,86.0,71.1,61,30.01,10.0,NNE,18.4,25.3,N/A,,Scattered Clouds,30,2013-07-05 00:54:00
3:54 PM,86.0,71.1,61,30.00,10.0,NNE,17.3,-,N/A,,Scattered Clouds,30,2013-07-05 01:54:00
4:54 PM,82.9,70.0,65,30.00,10.0,NNE,16.1,-,N/A,,Scattered Clouds,30,2013-07-05 02:54:00
5:54 PM,80.1,70.0,71,30.01,10.0,NE,12.7,-,N/A,,Scattered Clouds,50,2013-07-05 03:54:00
6:54 PM,78.1,69.1,74,30.03,10.0,ENE,8.1,-,N/A,,Mostly Cloudy,60,2013-07-05 04:54:00
7:54 PM,78.1,68.0,71,30.04,10.0,NE,6.9,-,N/A,,Mostly Cloudy,50,2013-07-05 05:54:00
8:54 PM,77.0,66.9,71,30.05,10.0,NE,5.8,-,N/A,,Overcast,40,2013-07-05 06:54:00
9:54 PM,77.0,68.0,74,30.06,10.0,North,6.9,-,N/A,,Scattered Clouds,10,2013-07-05 07:54:00
10:54 PM,77.0,69.1,76,30.07,10.0,North,8.1,-,N/A,,Overcast,10,2013-07-05 08:54:00
11:54 PM,77.0,70.0,79,30.06,10.0,NNE,5.8,-,N/A,,Mostly Cloudy,30,2013-07-05 09:54:00